Vb Andalucia — ECFI — position and weather

sailwx.info

Track history (hours):
 
Tides and Currents Weather Stations Pressure Air Temp Water Temp Dewpoint Dewpoint Depression Visibility Wind Speed Wind Dir Waves Ship Positions

Vb Andalucia

Last reported at 2014-Dec-18 15:23 UTC. Time now 2014-Dec-18 17:23 UTC.
Position N 36°08' W 005°26'.

Length 30 m; draft 5.8 m.

Type: Tug. MMSI: 224117450.

Date/timePositionNaut miles runAvg speedWind from/ knotsBaromVisibWave heightAir tempDewpointWater temp
2014-Dec-18 15:23N 36°08' W 005°26'0 0.0
2014-Dec-18 01:19N 36°08' W 005°26'0 0.0
2014-Dec-17 22:31N 36°08' W 005°26'1 0.8
2014-Dec-17 21:16N 36°09' W 005°26'1 0.1
2014-Dec-17 17:15N 36°09' W 005°25'0 0.3
2014-Dec-17 15:32N 36°08' W 005°26'0 0.0
2014-Dec-17 07:15N 36°08' W 005°26'0 0.7
2014-Dec-17 06:33N 36°08' W 005°26'1 0.1
2014-Dec-17 03:10N 36°08' W 005°26'0 0.0
2014-Dec-17 01:29N 36°08' W 005°26'0 0.0
2014-Dec-16 22:32N 36°08' W 005°26'0 0.0
2014-Dec-16 21:30N 36°08' W 005°26'0 0.1
2014-Dec-16 17:22N 36°08' W 005°25'0 0.1
2014-Dec-16 12:27N 36°08' W 005°26'0 0.5
2014-Dec-16 11:33N 36°09' W 005°25'1 0.1
2014-Dec-16 04:10N 36°08' W 005°25'0 0.0
2014-Dec-16 03:32N 36°08' W 005°25'0 0.1
2014-Dec-15 22:26N 36°08' W 005°26'0 0.1
2014-Dec-15 17:18N 36°08' W 005°25'1 0.1
2014-Dec-14 21:31N 36°09' W 005°26'1 0.8
2014-Dec-14 20:31N 36°08' W 005°25'1 0.1
2014-Dec-14 13:23N 36°09' W 005°26'0 0.4
2014-Dec-14 12:33N 36°08' W 005°26'1 0.4
2014-Dec-14 10:33N 36°08' W 005°25'1 0.8
2014-Dec-14 09:31N 36°09' W 005°25'1 0.8
2014-Dec-14 08:24N 36°09' W 005°26'0 0.5
2014-Dec-14 07:31N 36°09' W 005°26'0 0.3
2014-Dec-14 06:19N 36°09' W 005°26'0 0.1
2014-Dec-14 00:32N 36°09' W 005°26'2 0.5
2014-Dec-13 21:23N 36°08' W 005°25'1 0.2
2014-Dec-13 17:20N 36°08' W 005°25'1 0.3
2014-Dec-13 15:18N 36°08' W 005°25'1 0.6
2014-Dec-13 13:29N 36°09' W 005°26'1 1.4
2014-Dec-13 12:33N 36°08' W 005°25'1 1.0
2014-Dec-13 11:33N 36°08' W 005°26'1 0.2
2014-Dec-13 07:33N 36°08' W 005°25'1 0.1
2014-Dec-13 00:33N 36°09' W 005°26'1 0.2
2014-Dec-12 22:04N 36°08' W 005°26'1 0.6
2014-Dec-12 21:10N 36°09' W 005°26'0 0.7
2014-Dec-12 20:27N 36°08' W 005°26'1 0.7
2014-Dec-12 19:30N 36°09' W 005°26'0 0.0
2014-Dec-12 02:30N 36°09' W 005°26'1 0.4
2014-Dec-12 00:09N 36°08' W 005°26'1 0.8
2014-Dec-11 23:16N 36°09' W 005°26'0 0.2
2014-Dec-11 22:33N 36°09' W 005°26'0 0.1
2014-Dec-11 19:33N 36°09' W 005°26'2 0.2
2014-Dec-11 09:30N 36°10' W 005°24'1 0.9
2014-Dec-11 08:21N 36°11' W 005°24'3 1.6
2014-Dec-11 06:33N 36°08' W 005°26'1 0.1
2014-Dec-11 01:33N 36°08' W 005°25'0 0.0
2014-Dec-10 11:09N 36°08' W 005°25'1 0.1
2014-Dec-10 06:09N 36°08' W 005°26'0 0.2
2014-Dec-10 04:11N 36°08' W 005°26'0 0.2
2014-Dec-10 02:20N 36°08' W 005°26'0 0.5
2014-Dec-10 01:33N 36°08' W 005°26'0 0.1
2014-Dec-10 00:33N 36°08' W 005°26'1 0.7
2014-Dec-09 23:33N 36°09' W 005°26'1 0.4
2014-Dec-09 21:08N 36°08' W 005°26'3 0.4
2014-Dec-09 13:26N 36°10' W 005°23'3 0.7
2014-Dec-09 09:20N 36°08' W 005°26'0 0.1
2014-Dec-09 03:14N 36°08' W 005°26'0 0.0
2014-Dec-09 00:18N 36°08' W 005°26'0 0.0
2014-Dec-08 22:13N 36°08' W 005°26'0 0.0
2014-Dec-08 20:22N 36°08' W 005°26'0 0.0
2014-Dec-08 19:31N 36°08' W 005°26'0 0.0
2014-Dec-08 18:30N 36°08' W 005°26'  
Track history (hours):
 
Tides and Currents Weather Stations Pressure Air Temp Water Temp Dewpoint Dewpoint Depression Visibility Wind Speed Wind Dir Waves Ship Positions

Vb Andalucia

Last reported at 2014-Dec-18 15:23 UTC. Time now 2014-Dec-18 17:23 UTC.
Position N 36°08' W 005°26'.

Length 30 m; draft 5.8 m.

Type: Tug. MMSI: 224117450.

Date/timePositionNaut miles runAvg speedWind from/ knotsBaromVisibWave heightAir tempDewpointWater temp
2014-Dec-18 15:23N 36°08' W 005°26'0 0.0
2014-Dec-18 01:19N 36°08' W 005°26'0 0.0
2014-Dec-17 22:31N 36°08' W 005°26'1 0.8
2014-Dec-17 21:16N 36°09' W 005°26'1 0.1
2014-Dec-17 17:15N 36°09' W 005°25'0 0.3
2014-Dec-17 15:32N 36°08' W 005°26'0 0.0
2014-Dec-17 07:15N 36°08' W 005°26'0 0.7
2014-Dec-17 06:33N 36°08' W 005°26'1 0.1
2014-Dec-17 03:10N 36°08' W 005°26'0 0.0
2014-Dec-17 01:29N 36°08' W 005°26'0 0.0
2014-Dec-16 22:32N 36°08' W 005°26'0 0.0
2014-Dec-16 21:30N 36°08' W 005°26'0 0.1
2014-Dec-16 17:22N 36°08' W 005°25'0 0.1
2014-Dec-16 12:27N 36°08' W 005°26'0 0.5
2014-Dec-16 11:33N 36°09' W 005°25'1 0.1
2014-Dec-16 04:10N 36°08' W 005°25'0 0.0
2014-Dec-16 03:32N 36°08' W 005°25'0 0.1
2014-Dec-15 22:26N 36°08' W 005°26'0 0.1
2014-Dec-15 17:18N 36°08' W 005°25'1 0.1
2014-Dec-14 21:31N 36°09' W 005°26'1 0.8
2014-Dec-14 20:31N 36°08' W 005°25'1 0.1
2014-Dec-14 13:23N 36°09' W 005°26'0 0.4
2014-Dec-14 12:33N 36°08' W 005°26'1 0.4
2014-Dec-14 10:33N 36°08' W 005°25'1 0.8
2014-Dec-14 09:31N 36°09' W 005°25'1 0.8
2014-Dec-14 08:24N 36°09' W 005°26'0 0.5
2014-Dec-14 07:31N 36°09' W 005°26'0 0.3
2014-Dec-14 06:19N 36°09' W 005°26'0 0.1
2014-Dec-14 00:32N 36°09' W 005°26'2 0.5
2014-Dec-13 21:23N 36°08' W 005°25'1 0.2
2014-Dec-13 17:20N 36°08' W 005°25'1 0.3
2014-Dec-13 15:18N 36°08' W 005°25'1 0.6
2014-Dec-13 13:29N 36°09' W 005°26'1 1.4
2014-Dec-13 12:33N 36°08' W 005°25'1 1.0
2014-Dec-13 11:33N 36°08' W 005°26'1 0.2
2014-Dec-13 07:33N 36°08' W 005°25'1 0.1
2014-Dec-13 00:33N 36°09' W 005°26'1 0.2
2014-Dec-12 22:04N 36°08' W 005°26'1 0.6
2014-Dec-12 21:10N 36°09' W 005°26'0 0.7
2014-Dec-12 20:27N 36°08' W 005°26'1 0.7
2014-Dec-12 19:30N 36°09' W 005°26'0 0.0
2014-Dec-12 02:30N 36°09' W 005°26'1 0.4
2014-Dec-12 00:09N 36°08' W 005°26'1 0.8
2014-Dec-11 23:16N 36°09' W 005°26'0 0.2
2014-Dec-11 22:33N 36°09' W 005°26'0 0.1
2014-Dec-11 19:33N 36°09' W 005°26'2 0.2
2014-Dec-11 09:30N 36°10' W 005°24'1 0.9
2014-Dec-11 08:21N 36°11' W 005°24'3 1.6
2014-Dec-11 06:33N 36°08' W 005°26'1 0.1
2014-Dec-11 01:33N 36°08' W 005°25'0 0.0
2014-Dec-10 11:09N 36°08' W 005°25'1 0.1
2014-Dec-10 06:09N 36°08' W 005°26'0 0.2
2014-Dec-10 04:11N 36°08' W 005°26'0 0.2
2014-Dec-10 02:20N 36°08' W 005°26'0 0.5
2014-Dec-10 01:33N 36°08' W 005°26'0 0.1
2014-Dec-10 00:33N 36°08' W 005°26'1 0.7
2014-Dec-09 23:33N 36°09' W 005°26'1 0.4
2014-Dec-09 21:08N 36°08' W 005°26'3 0.4
2014-Dec-09 13:26N 36°10' W 005°23'3 0.7
2014-Dec-09 09:20N 36°08' W 005°26'0 0.1
2014-Dec-09 03:14N 36°08' W 005°26'0 0.0
2014-Dec-09 00:18N 36°08' W 005°26'0 0.0
2014-Dec-08 22:13N 36°08' W 005°26'0 0.0
2014-Dec-08 20:22N 36°08' W 005°26'0 0.0
2014-Dec-08 19:31N 36°08' W 005°26'0 0.0
2014-Dec-08 18:30N 36°08' W 005°26'  

Dump ship's entire track history